DECAYED

BREEZE-M DEB, 38629 (Decayed)

Orbit data source: Space-Track

BREEZE-M DEB, 38629 was space debris in LEO originally from a launch on Fri, 14 Mar 2008 UTC launched from the Tyuratam Missile And Space Complex (TTMTR). Debris objects in space refer to the collection of defunct objects orbiting the Earth. Examples of debris include non-operational satellites, rocket bodies, and fragments generated from explosions, collisions, or faulty payload assembly.

Not visible in the next 10 days
Identifier
38629, 2008-011CC
Orbit
Decayed
Country
Flag of CISCIS
Related business
Manufacturer
Unknown
Mission
Decayed spacecraft
Bus & Motor
Unknown
Mass
Unknown
Launch date (UTC)
2008-03-14 (18 years ago)
Launch vehicle
Unknown
Launch site
Tyuratam Missile And Space Complex (TTMTR)
Object type
Payload
Rocket body
Debris
Shape & HBR
Unknown shape, 0.3 m
Radar Cross Section
Medium (>0.1 m² and <1 m²)

Expand to show TLE details & history
Last TLE update: 1 year ago

TLE from 1 year ago
0 BREEZE-M DEB
1 38629U 08011CC  25064.31003635  .06121421  19348-1  84229-1 0  9995
2 38629  49.6842  37.8922 0347266 196.9459 161.9648 15.11930999  3527
Epoch: 2025-03-05T07:26Z
TLE epoch observation values (Epoch: 2025-03-05T07:26:27.140Z)
Latitude
-0.00001°
Longitude
122.97817°
Altitude
759.692 km
Speed
7.351 km/s
True Right ascension
02h 31m 34s
True Declination
0° 00' 00"
Sunlit
Object was in daylight at epoch
Visualization orbit readout
Latitude
Unknown
Longitude
Unknown
Altitude
Unknown
Speed
Unknown
Apparent Right ascension
Unknown
Apparent Declination
Unknown
Sunlit
N/A
Visualization observer readout
Local Sidereal Time
03:28:32
Azimuth
Unknown
Elevation
Unknown
Doppler factor
Unknown
Orbital elements
Apogee altitude
771.068 km
Perigee altitude
291.197 km
Semi-major axis
6,909.27 km
Eccentricity
0.03473
Inclination
49.6842°
RAAN
37.8922°
Arg. of periapsis
196.9459°
True anomaly
163.14783°
Mean anomaly
161.9648°
Eccentric anomaly
162.56109°
Mean motion
3.77916 °/min
Orbital period
95.26 mins
BSTAR
0.084229
Loading maneuver chart data...
Computing Atmospheric mass density...
Loading historical data...
Loading historical data...
Loading historical data...
Loading historical data...
Loading historical data...
Loading historical data...
Loading historical data...

Documentation

Showing up to 5 results
|